Wind_Speed
14 14 15 16 17 15 16 17 19 19 20 20 21 22 22 22 22 23 23 25 23 22 22 23 20 17 15 12 29 12 9 5 5 22 35 31 22 12 6 6 12 5 7 16 24 33 6
14 16 16 16 17 18 16 18 19 21 22 23 22 22 23 22 23 23 23 23 23 23 22 21 20 15 13 14 26 20 27 30 17 16 32 31 18 24 5 9 11 8 22 18 25 25 10
16 14 14 18 19 19 20 19 20 22 22 23 23 24 24 24 24 24 24 23 21 21 21 20 17 13 19 43 22 15 18 18 16 15 27 31 27 15 14 5 23 27 5 7 18 17 9
15 16 16 16 18 20 20 20 20 22 23 24 25 25 25 25 25 24 23 21 19 20 21 16 15 12 19 25 21 25 25 20 20 23 21 25 27 26 10 10 6 7 7 14 16 7 11
15 15 17 19 19 21 22 21 22 22 23 24 26 27 26 25 24 22 22 20 20 18 12 12 13 11 18 13 17 19 30 28 21 20 21 18 21 15 9 5 5 5 5 6 17 11 6
17 17 18 19 21 21 22 23 23 22 23 26 28 27 26 25 23 18 19 20 12 7 2 7 4 6 22 17 7 21 16 27 23 15 21 20 14 5 4 6 12 5 7 6 8 7 7
18 17 19 20 21 22 21 24 22 23 24 27 27 27 25 24 17 16 21 18 17 5 18 12 12 17 36 31 24 9 12 26 22 13 9 11 8 16 23 14 4 5 4 9 5 7 7
17 19 20 19 21 23 24 23 23 23 24 27 27 27 28 24 9 13 12 15 16 15 20 28 38 38 50 35 23 21 3 19 11 9 8 4 19 10 7 9 8 7 6 6 6 5 6
20 21 22 22 23 24 24 24 24 24 25 26 26 25 27 21 3 9 4 15 21 12 6 21 11 12 15 12 20 31 9 17 5 7 10 12 3 7 9 6 9 11 8 5 7 3 5
21 22 23 23 23 24 24 24 24 25 26 25 24 20 23 26 7 19 11 21 16 11 4 6 10 10 7 7 6 22 21 10 4 12 4 5 10 15 8 13 12 14 9 9 6 4 5
21 23 24 24 24 24 25 24 25 26 26 25 22 16 21 21 23 21 19 18 9 4 3 11 15 15 25 4 6 3 19 13 5 5 7 8 12 10 14 19 14 10 7 8 5 4 2
21 24 25 25 26 26 26 25 25 25 26 25 20 12 21 22 23 19 20 17 4 4 4 9 14 18 18 14 10 18 1 13 8 5 6 14 6 9 17 9 11 2 1 4 2 5 3
23 25 25 26 26 27 25 25 26 25 25 23 14 10 18 23 24 24 25 8 4 4 13 13 17 20 11 14 9 11 4 6 7 5 12 3 16 14 3 12 8 8 5 2 2 2 9
24 26 27 27 27 28 26 26 26 25 25 20 10 11 20 20 23 26 20 4 8 9 12 16 14 14 9 19 7 21 8 5 6 3 3 8 8 13 9 11 8 11 10 5 7 6 7
24 26 27 27 29 28 26 27 27 25 24 20 9 6 20 21 19 18 8 5 3 8 11 14 15 8 8 17 10 12 10 11 8 13 3 4 9 9 8 8 12 5 9 8 5 1 4
23 25 27 28 29 28 26 27 28 27 24 18 13 3 24 19 14 9 6 4 5 8 12 9 9 7 9 13 12 14 9 15 13 14 11 6 4 5 10 7 4 9 6 4 2 6 5
22 24 27 28 29 28 26 27 27 28 25 18 9 3 24 18 8 10 3 4 7 17 14 7 7 8 11 12 13 6 8 5 17 17 11 5 4 9 2 5 9 3 5 3 5 4 5
21 24 26 27 29 28 26 27 26 26 29 21 9 3 23 9 13 6 4 8 15 17 21 9 6 9 13 11 7 0 10 9 21 20 10 4 4 7 6 6 1 6 7 6 5 4 2
20 23 25 26 28 27 25 27 25 25 23 18 6 7 14 26 4 5 9 12 12 17 14 12 10 9 15 8 6 8 12 15 25 16 14 7 4 0 1 5 5 3 5 6 6 3 5
19 21 24 25 26 26 24 26 25 25 23 16 6 5 11 18 14 3 4 10 15 17 14 19 7 15 13 14 10 5 16 9 24 11 19 10 2 3 5 2 2 3 5 7 7 4 4
18 20 22 24 24 24 23 24 25 23 25 12 10 3 6 4 12 9 10 13 16 15 11 19 8 15 14 8 11 12 12 15 14 12 14 6 3 6 7 3 4 4 4 10 6 7 8
17 18 21 22 23 22 22 22 23 24 20 31 7 7 8 6 11 6 7 8 13 13 8 14 13 13 11 3 5 16 13 10 6 7 11 7 4 4 3 6 6 4 5 5 3 5 3
17 17 19 21 22 20 20 20 22 24 24 16 18 15 6 7 10 5 8 11 13 15 9 17 11 7 8 8 20 30 28 23 19 10 4 4 4 5 2 9 4 4 1 4 5 13 1
16 16 17 19 21 19 17 18 19 21 23 18 18 12 6 3 3 5 9 16 13 15 11 17 17 5 14 31 31 25 24 22 24 17 13 5 6 2 2 4 3 4 14 12 17 14 17
14 16 15 17 19 17 15 14 16 18 20 19 17 15 6 4 8 7 17 17 18 19 16 15 20 24 28 18 4 6 5 3 9 13 10 12 2 2 2 1 2 3 11 8 9 7 16
12 14 16 15 18 17 15 13 12 16 18 20 17 15 8 5 4 15 11 10 4 9 6 10 22 30 18 2 2 0 3 4 2 5 3 8 4 3 2 2 4 6 17 17 11 2 19
12 12 14 14 16 17 15 11 10 12 15 19 18 17 16 7 9 18 5 6 10 7 3 11 20 12 20 5 2 1 2 6 3 5 4 3 3 3 3 1 3 12 21 22 6 4 24
12 11 12 13 14 16 15 11 9 10 13 17 18 16 15 7 20 9 20 22 15 6 3 11 8 8 4 5 4 3 3 4 2 4 6 4 1 1 0 1 3 25 6 6 7 14 18
10 10 11 13 13 15 14 12 9 10 13 17 21 19 14 10 16 11 13 10 17 18 11 8 4 4 3 3 4 3 3 4 10 4 8 4 3 2 4 2 8 9 9 11 10 14 16
Wind_Direction
41 33 22 20 16 10 3 359 355 352 349 346 345 343 342 337 330 325 323 320 316 310 304 302 297 295 290 247 242 226 245 308 6 203 200 201 203 198 216 222 220 207 244 238 245 260 236
32 23 19 16 14 10 1 357 353 350 348 347 342 344 345 339 333 330 325 320 313 309 303 299 298 285 254 257 280 266 251 255 273 225 199 203 210 210 246 241 204 216 229 248 251 257 241
35 22 21 11 12 3 1 359 353 351 348 350 350 348 347 341 336 332 326 323 314 306 299 298 292 275 249 251 269 276 246 234 228 228 212 209 203 180 224 308 237 231 249 253 247 251 185
32 25 13 11 9 3 359 355 354 353 354 352 353 352 345 340 336 332 329 324 312 298 293 286 286 245 255 282 282 262 230 228 214 220 245 232 217 225 233 268 310 202 192 240 254 200 208
30 17 18 18 2 2 1 357 356 354 356 356 352 350 345 340 337 335 335 329 316 309 284 277 288 237 268 278 263 269 221 219 201 219 237 230 211 211 226 193 301 229 215 199 251 188 154
22 19 15 11 1 3 357 -0 356 357 356 355 352 350 347 341 340 344 344 337 331 332 322 304 271 254 261 264 279 313 248 211 201 210 221 215 205 180 186 175 216 200 176 197 213 217 162
21 23 14 10 1 0 358 355 356 357 356 354 352 350 350 342 349 7 355 12 12 327 306 254 242 229 272 283 283 265 330 200 210 229 185 191 188 207 216 215 187 192 197 206 216 210 121
24 18 14 8 2 1 358 356 358 357 355 354 352 352 351 349 24 20 23 48 9 320 304 284 271 260 257 267 293 285 236 188 185 211 159 182 217 214 158 167 208 237 241 229 239 186 94
20 17 13 10 6 0 357 359 358 356 354 353 352 356 354 359 8 353 359 4 342 325 282 307 289 262 268 236 231 264 273 220 153 187 196 207 249 172 192 182 206 228 219 220 210 131 101
21 15 15 11 5 2 2 359 357 354 352 352 351 360 3 3 349 351 334 327 345 332 289 325 16 325 321 204 252 255 262 248 215 200 170 234 261 189 203 214 201 233 178 215 233 130 198
20 15 14 11 7 5 2 0 356 352 350 349 349 356 11 1 351 342 350 349 338 301 25 349 354 314 353 176 335 316 241 201 235 180 173 221 209 199 213 213 201 224 173 203 207 173 88
18 17 13 11 9 6 2 357 355 353 350 348 349 3 4 2 1 358 348 334 315 46 294 344 348 334 340 339 308 260 188 199 201 224 267 226 240 186 223 231 221 214 237 192 195 130 199
18 14 13 11 8 4 1 358 354 354 351 350 354 355 5 2 359 355 347 339 39 60 332 346 328 328 13 348 335 357 242 156 186 167 231 243 240 247 198 219 215 202 132 223 203 100 225
17 12 13 10 8 4 1 359 355 355 352 352 355 357 7 4 353 348 345 44 60 329 351 326 328 325 4 12 350 344 351 147 206 173 148 209 271 215 211 202 194 202 191 153 178 181 226
15 12 12 11 8 6 3 0 356 355 355 351 3 4 10 358 339 340 6 49 348 325 338 335 342 348 352 3 340 357 352 6 42 14 245 194 239 271 199 224 184 205 194 186 116 215 112
14 11 10 11 9 8 6 4 359 355 359 350 353 59 12 1 356 14 58 359 342 314 333 341 5 347 343 352 0 354 345 45 350 356 339 278 278 237 256 163 248 155 159 129 1 157 188
13 11 10 11 9 10 9 6 4 356 3 360 360 44 5 3 28 34 100 267 304 327 13 357 354 351 339 341 328 329 336 14 5 338 345 332 183 266 358 194 186 115 137 108 127 137 169
12 12 10 10 10 12 13 12 11 5 359 16 22 32 12 8 42 357 356 325 355 356 16 4 339 353 356 338 316 342 1 348 352 332 338 298 307 234 214 280 346 154 149 126 125 246 124
12 12 10 10 11 13 15 15 15 15 3 6 22 344 22 42 51 341 335 355 12 13 11 4 17 358 346 351 333 8 350 335 2 334 345 333 303 116 155 349 343 190 172 136 120 98 180
12 12 10 11 12 16 16 19 21 20 13 31 31 16 354 32 18 335 359 354 1 11 349 5 21 357 358 336 345 5 357 344 325 321 350 342 269 336 206 164 263 203 195 131 128 127 162
13 12 11 11 14 18 19 20 22 22 26 50 34 30 1 333 358 1 12 11 7 3 348 10 343 -0 345 355 334 4 356 331 323 2 350 19 321 333 308 294 38 56 194 149 160 165 185
12 12 11 11 14 17 21 21 20 23 25 48 43 1 338 317 342 357 17 344 360 349 333 351 351 347 334 64 335 318 324 320 286 330 343 340 312 321 323 17 49 66 14 24 112 183 160
11 10 10 11 13 16 20 25 26 26 29 39 26 10 334 329 342 7 2 358 350 359 337 341 357 348 324 318 312 299 285 265 260 274 304 298 335 355 5 340 47 27 8 65 51 29 338
11 10 8 10 11 14 17 25 27 32 33 29 27 10 355 303 358 351 333 349 339 345 328 325 345 339 303 313 310 296 268 243 244 250 207 266 323 320 291 332 96 258 33 42 91 45 20
4 6 4 6 8 11 14 20 22 24 29 26 19 20 348 310 297 323 341 335 332 338 326 312 329 325 324 312 301 318 328 358 242 248 207 205 231 307 73 304 259 42 24 359 2 48 21
351 356 360 360 5 7 7 10 15 18 17 19 12 0 352 310 284 323 328 320 315 335 315 307 331 340 346 307 347 304 304 304 26 315 195 168 177 108 330 123 171 26 321 316 292 170 1
343 345 353 354 358 2 2 2 4 6 12 8 18 6 355 293 303 317 288 296 315 311 274 308 335 345 354 343 333 325 272 322 6 28 329 90 56 163 269 311 86 356 317 315 163 326 332
329 333 343 347 351 357 1 3 1 0 2 359 356 8 347 311 310 302 311 304 305 282 301 316 349 3 318 350 7 333 330 343 28 38 339 29 276 154 330 350 321 3 19 45 313 313 329
320 325 332 341 343 350 356 359 353 352 355 351 344 355 338 298 301 320 344 319 325 320 301 330 296 299 330 347 8 318 317 344 351 22 7 22 342 43 42 356 294 4 352 343 330 314 329
Height
1549 1546 1544 1540 1538 1535 1532 1530 1526 1523 1519 1515 1512 1508 1505 1501 1497 1493 1489 1486 1484 1481 1478 1475 1474 1472 1471 1469 1452 1455 1454 1452 1451 1452 1454 1461 1467 1470 1470 1466 1470 1472 1469 1470 1471 1469 1478
1549 1546 1544 1541 1538 1534 1531 1528 1525 1521 1517 1514 1509 1505 1501 1497 1493 1490 1486 1483 1479 1476 1474 1471 1469 1468 1468 1460 1447 1448 1450 1450 1451 1452 1453 1458 1460 1463 1466 1463 1467 1463 1466 1466 1466 1466 1473
1549 1546 1544 1541 1537 1534 1530 1526 1523 1519 1515 1510 1506 1502 1498 1493 1489 1485 1481 1478 1474 1472 1469 1467 1465 1464 1460 1434 1444 1443 1443 1445 1447 1450 1451 1454 1458 1462 1463 1464 1462 1463 1467 1465 1461 1463 1470
1549 1546 1544 1540 1537 1533 1529 1525 1521 1516 1512 1508 1504 1500 1495 1490 1486 1481 1477 1473 1470 1466 1464 1463 1462 1461 1445 1437 1437 1434 1440 1439 1442 1444 1449 1452 1457 1461 1461 1459 1458 1460 1464 1469 1453 1459 1462
1549 1547 1543 1540 1537 1532 1528 1523 1519 1515 1511 1506 1502 1497 1492 1487 1483 1478 1473 1469 1464 1461 1459 1458 1458 1457 1439 1433 1429 1427 1429 1433 1438 1441 1444 1449 1454 1456 1459 1463 1467 1460 1468 1463 1456 1453 1458
1550 1546 1543 1539 1536 1531 1528 1522 1518 1514 1509 1505 1500 1495 1490 1485 1480 1476 1471 1466 1462 1459 1457 1456 1456 1458 1434 1428 1427 1424 1424 1429 1434 1438 1443 1445 1449 1450 1454 1459 1460 1462 1461 1457 1456 1448 1451
1549 1546 1543 1539 1536 1531 1527 1522 1517 1513 1508 1503 1498 1493 1488 1482 1478 1475 1469 1462 1464 1462 1457 1455 1448 1440 1429 1428 1426 1422 1423 1426 1430 1434 1437 1436 1445 1440 1435 1445 1446 1448 1449 1451 1447 1442 1449
1549 1545 1541 1538 1535 1530 1526 1521 1516 1512 1507 1502 1497 1491 1486 1481 1479 1476 1472 1471 1477 1475 1451 1441 1431 1431 1422 1431 1430 1418 1417 1423 1425 1431 1430 1436 1430 1431 1435 1441 1444 1447 1450 1449 1440 1436 1447
1550 1546 1541 1538 1534 1529 1525 1520 1516 1511 1506 1501 1496 1491 1485 1481 1478 1476 1473 1473 1473 1471 1463 1431 1430 1425 1419 1421 1425 1416 1421 1420 1421 1428 1426 1428 1425 1429 1431 1437 1441 1442 1448 1445 1440 1436 1444
1550 1546 1541 1537 1533 1529 1524 1520 1515 1510 1505 1501 1496 1491 1486 1480 1479 1476 1474 1471 1470 1469 1464 1444 1433 1427 1422 1419 1419 1413 1416 1421 1418 1422 1425 1430 1423 1424 1430 1430 1434 1440 1435 1437 1439 1445 1461
1550 1546 1542 1537 1533 1528 1524 1519 1514 1509 1504 1499 1495 1491 1487 1482 1480 1476 1472 1469 1468 1468 1471 1437 1432 1429 1421 1419 1415 1409 1411 1416 1418 1418 1424 1425 1424 1426 1427 1418 1426 1430 1429 1434 1437 1446 1446
1550 1546 1542 1537 1533 1528 1524 1518 1513 1508 1503 1498 1494 1491 1486 1484 1480 1475 1471 1468 1467 1479 1491 1443 1442 1433 1423 1417 1413 1407 1409 1413 1415 1419 1418 1420 1417 1420 1415 1419 1422 1423 1428 1431 1436 1449 1468
1550 1546 1542 1537 1532 1528 1523 1518 1512 1507 1502 1497 1493 1490 1486 1482 1478 1474 1469 1466 1478 1487 1460 1454 1446 1438 1428 1425 1415 1412 1407 1411 1417 1425 1423 1420 1417 1412 1412 1421 1419 1423 1433 1456 1462 1474 1462
1550 1547 1541 1537 1532 1527 1522 1517 1512 1506 1500 1495 1492 1490 1488 1482 1478 1473 1469 1470 1490 1474 1465 1456 1450 1437 1434 1430 1423 1420 1407 1409 1410 1414 1420 1427 1428 1409 1405 1411 1416 1420 1424 1453 1456 1471 1450
1551 1547 1542 1537 1533 1527 1522 1517 1511 1505 1500 1494 1491 1489 1487 1483 1478 1475 1472 1490 1482 1473 1466 1459 1450 1443 1439 1439 1435 1431 1423 1423 1424 1422 1421 1418 1414 1400 1402 1404 1408 1417 1425 1421 1437 1436 1450
1552 1548 1543 1538 1533 1527 1522 1517 1511 1504 1499 1494 1491 1488 1486 1482 1478 1475 1477 1481 1478 1472 1467 1462 1463 1455 1452 1446 1441 1439 1430 1433 1432 1427 1426 1414 1417 1399 1397 1398 1402 1406 1411 1433 1440 1455 1453
1553 1548 1544 1539 1534 1528 1523 1519 1512 1505 1499 1493 1489 1489 1489 1484 1481 1479 1495 1487 1476 1471 1468 1465 1464 1463 1460 1455 1448 1450 1440 1434 1439 1428 1422 1419 1411 1404 1399 1396 1405 1409 1417 1420 1426 1438 1450
1553 1549 1546 1540 1535 1530 1525 1520 1514 1507 1499 1494 1492 1493 1492 1486 1487 1490 1493 1486 1480 1476 1471 1470 1466 1464 1466 1457 1449 1446 1452 1449 1445 1438 1432 1425 1419 1413 1404 1391 1393 1396 1410 1418 1447 1445 1446
1553 1551 1546 1542 1537 1532 1527 1522 1516 1512 1505 1499 1498 1498 1496 1491 1506 1500 1492 1489 1485 1481 1477 1475 1475 1472 1469 1463 1459 1454 1453 1448 1445 1442 1439 1430 1421 1414 1403 1402 1393 1399 1400 1407 1420 1432 1436
1554 1551 1547 1543 1539 1534 1530 1525 1520 1515 1508 1504 1504 1507 1501 1500 1503 1502 1498 1496 1490 1486 1481 1479 1477 1475 1469 1466 1463 1462 1457 1449 1448 1445 1435 1427 1420 1422 1414 1410 1406 1403 1401 1406 1415 1437 1438
1554 1551 1549 1545 1540 1536 1532 1528 1524 1519 1513 1508 1510 1515 1515 1516 1506 1504 1501 1501 1496 1492 1487 1484 1479 1480 1476 1472 1467 1467 1464 1453 1447 1441 1436 1435 1429 1423 1415 1406 1399 1402 1401 1406 1411 1417 1425
1555 1552 1550 1546 1542 1538 1535 1531 1528 1524 1520 1514 1519 1520 1516 1514 1512 1508 1506 1505 1501 1497 1492 1487 1486 1483 1478 1479 1479 1472 1468 1463 1453 1442 1444 1439 1435 1428 1425 1403 1399 1405 1404 1405 1406 1409 1411
1555 1553 1551 1548 1544 1541 1538 1535 1532 1529 1525 1523 1523 1522 1520 1516 1513 1512 1511 1508 1504 1500 1493 1491 1487 1483 1479 1477 1473 1467 1463 1460 1453 1453 1451 1445 1442 1436 1424 1416 1405 1419 1409 1407 1408 1416 1410
1556 1554 1552 1549 1546 1543 1540 1538 1536 1533 1531 1530 1527 1525 1522 1521 1517 1517 1513 1509 1504 1501 1497 1491 1487 1484 1479 1472 1466 1456 1449 1447 1444 1441 1446 1445 1443 1440 1437 1419 1431 1412 1413 1412 1423 1428 1427
1556 1554 1552 1549 1547 1544 1541 1540 1538 1536 1534 1532 1530 1528 1526 1524 1518 1514 1512 1509 1504 1501 1495 1490 1486 1482 1474 1467 1464 1456 1450 1442 1439 1432 1436 1440 1442 1444 1438 1432 1420 1416 1430 1436 1433 1435 1437
1556 1554 1552 1550 1547 1545 1543 1541 1540 1538 1536 1534 1532 1529 1528 1526 1519 1517 1513 1509 1506 1500 1493 1488 1484 1477 1473 1468 1467 1470 1459 1439 1435 1429 1427 1436 1440 1450 1444 1441 1432 1447 1442 1440 1440 1435 1438
1556 1554 1552 1550 1547 1545 1543 1541 1540 1538 1536 1534 1533 1530 1528 1524 1517 1517 1512 1510 1506 1503 1500 1491 1485 1480 1476 1473 1473 1470 1454 1445 1439 1447 1441 1445 1448 1447 1446 1446 1438 1455 1440 1431 1427 1443 1444
1555 1553 1551 1549 1547 1545 1543 1541 1540 1538 1536 1535 1533 1530 1528 1524 1515 1513 1510 1508 1505 1503 1501 1495 1491 1487 1482 1477 1479 1474 1465 1458 1452 1459 1456 1448 1449 1450 1448 1450 1453 1454 1443 1444 1455 1450 1446
1554 1552 1550 1548 1546 1545 1542 1541 1539 1538 1536 1534 1531 1529 1526 1523 1515 1510 1507 1506 1504 1501 1500 1497 1497 1493 1490 1489 1486 1481 1476 1470 1463 1461 1453 1456 1456 1453 1459 1465 1462 1460 1460 1459 1456 1453 1445